Weather History for KSPW - October, 2012

Change the Weather History Date:

Sunday, October 21, 2012

  Actual Average Record
Temperature  
Mean Temperature 60 °F -  
Max Temperature 75 °F 59 °F 76 °F (1973)
Min Temperature 44 °F 36 °F 21 °F (1976)
Degree Days  
Heating Degree Days 6    
Growing Degree Days 10 (Base 50)    
Moisture  
Dew Point 46 °F    
Average Humidity 73    
Maximum Humidity 89    
Minimum Humidity 43    
Precipitation  
Precipitation 0.00 in - - ()
Sea Level Pressure  
Sea Level Pressure 29.79 in    
Wind  
Wind Speed 11 mph (SE)    
Max Wind Speed 16 mph    
Max Gust Speed 23 mph    
Visibility 10 miles    
Events      
Averages and records for this station are not official NWS values.
T = Trace of Precipitation, MM = Missing Value Source: NWS Daily Summary

Daily Weather History Graph

Daily Weather History Graph

Search for Another Location

Airport or City:

Trip Planner

Search our weather history database for the weather conditions in past years. The results will help you decide how hot, cold, wet, or windy it might be!

Date:

Astronomy

Oct. 21, 2012 Rise Set
Actual Time 7:42 AM CDT 6:27 PM CDT
Civil Twilight 7:13 AM CDT 6:56 PM CDT
Nautical Twilight 6:40 AM CDT 7:29 PM CDT
Astronomical Twilight 6:07 AM CDT 8:02 PM CDT
Moon 2:07 PM CDT (10/21) No Moon Set
Length of Visible Light 11h 43m
Length of Day
10h 45m
Waxing Crescent, 45% of the Moon is Illuminated
Oct 21
Waxing Crescent
Oct 21
First Quarter
Oct 29
Full
Nov 6
Last Quarter
Nov 13
New

Hourly Weather History & Observations

Time (CDT) Temp. Windchill Dew Point Humidity Pressure Visibility Wind Dir Wind Speed Gust Speed Precip Events Conditions
12:53 AM 45.0 °F 39.7 °F 41.0 °F 86% 29.79 in 10.0 mi SSE 10.4 mph - N/A   Clear
2:53 AM 45.0 °F 40.6 °F 41.0 °F 86% 29.77 in 10.0 mi SE 8.1 mph - N/A   Clear
3:53 AM 45.0 °F 39.7 °F 41.0 °F 86% 29.76 in 10.0 mi SSE 10.4 mph - N/A   Clear
4:53 AM 45.0 °F 39.7 °F 41.0 °F 86% 29.75 in 10.0 mi SE 10.4 mph - N/A   Clear
5:53 AM 45.0 °F 39.7 °F 41.0 °F 86% 29.75 in 10.0 mi SE 10.4 mph - N/A   Clear
6:53 AM 44.1 °F 39.0 °F 41.0 °F 89% 29.76 in 10.0 mi SE 9.2 mph - N/A   Clear
7:53 AM 45.0 °F 38.9 °F 41.0 °F 86% 29.76 in 10.0 mi SE 12.7 mph - N/A   Clear
8:53 AM 46.9 °F - 43.0 °F 86% 29.75 in 10.0 mi SSE 13.8 mph 23.0 mph N/A   Clear
9:53 AM 53.1 °F - 46.0 °F 77% 29.77 in 10.0 mi SSE 13.8 mph - N/A   Clear
10:53 AM 55.9 °F - 46.9 °F 72% 29.76 in 10.0 mi South 12.7 mph - N/A   Clear
11:53 AM 62.1 °F - 50.0 °F 65% 29.76 in 10.0 mi South 15.0 mph - N/A   Clear
12:53 PM 69.1 °F - 52.0 °F 54% 29.75 in 10.0 mi SSW 13.8 mph - N/A   Clear
1:53 PM 73.0 °F - 51.1 °F 46% 29.75 in 10.0 mi SW 11.5 mph - N/A   Clear
2:53 PM 75.0 °F - 51.1 °F 43% 29.75 in 10.0 mi SSW 10.4 mph - N/A   Clear
3:53 PM 75.0 °F - 51.1 °F 43% 29.76 in 9.0 mi West 9.2 mph - N/A   Clear
5:53 PM 68.0 °F - 48.9 °F 50% 29.79 in 10.0 mi North 6.9 mph - N/A   Clear
6:53 PM 61.0 °F - 48.9 °F 64% 29.81 in 10.0 mi North 8.1 mph - N/A   Clear
7:53 PM 57.0 °F - 48.0 °F 72% 29.84 in 10.0 mi NNE 10.4 mph - N/A   Clear
8:53 PM 55.0 °F - 46.9 °F 74% 29.88 in 10.0 mi North 12.7 mph - N/A   Clear
9:53 PM 51.1 °F - 46.0 °F 83% 29.89 in 10.0 mi NNE 13.8 mph - N/A   Clear
10:53 PM 51.1 °F - 46.0 °F 83% 29.89 in 10.0 mi NNE 16.1 mph - N/A   Clear
11:53 PM 52.0 °F - 46.0 °F 80% 29.89 in 10.0 mi NNE 13.8 mph - N/A   Mostly Cloudy